SCP
0 0 0 0 0 0 0 0 0 0 0 0 0 0 0 -0 0 0 0 0 0 0 0 0 0 0 0 0 0 0 0 0 0 0 0 0 0 0 0 0 0 0 0 0 0 0 0 0 0 0 0 0 0 0
0 0 0 0 0 0 0 0 0 0 0 0 0 0 0 0 0 0 0 0 0 0 0 0 0 0 0 0 0 0 0 0 0 0 0 0 0 0 0 0 0 0 0 0 0 0 0 0 0 0 0 0 0 0
0 0 0 0 0 0 0 0 0 0 0 0 0 0 0 0 0 0 0 0 0 0 0 0 0 0 0 0 0 0 0 0 0 0 0 0 0 0 0 0 0 0 0 0 0 0 0 0 0 0 0 0 0 0
0 0 0 0 0 -0 0 0 0 0 0 0 0 0 0 0 0 0 0 0 0 0 0 0 0 0 0 0 0 0 0 0 0 0 0 0 0 0 0 0 0 0 0 0 0 0 0 0 0 0 0 0 0 0
0 0 0 0 0 0 0 0 0 0 0 0 0 0 0 0 0 0 0 0 0 0 0 0 0 0 0 0 0 0 0 0 0 0 0 0 0 0 0 0 0 0 0 0 0 0 0 0 0 0 0 0 0 0
0 0 0 0 0 0 0 0 0 -0 0 0 0 0 0 0 0 0 0 0 0 0 0 0 0 0 0 0 0 0 0 0 0 0 0 0 0 0 0 0 0 0 0 0 0 0 0 0 0 0 0 0 0 0
0 0 0 0 0 0 0 0 0 -0 0 0 0 0 0 0 0 0 0 0 0 0 0 0 0 0 0 0 0 0 0 0 0 0 0 0 0 0 0 0 0 0 -0 0 0 0 0 0 0 0 0 0 0 0
0 0 0 0 0 0 0 0 0 -0 0 0 0 0 0 0 0 0 0 0 0 0 0 0 0 0 0 0 0 0 0 0 0 0 0 0 0 0 0 0 0 0 0 0 0 0 0 0 0 0 0 0 0 0
0 0 0 0 0 0 0 0 0 0 0 0 0 0 0 0 0 0 0 0 0 0 0 0 0 0 0 0 0 0 0 0 0 0 0 0 0 0 0 0 0 0 0 0 0 0 0 0 0 0 0 0 0 0
0 0 0 0 0 0 0 0 0 0 0 0 0 0 0 0 0 0 0 0 0 0 0 0 0 0 0 0 0 0 0 0 0 0 0 0 0 0 0 0 0 0 0 0 0 0 0 0 0 0 0 0 0 0
0 0 0 0 0 0 0 0 0 0 0 0 0 0 0 0 0 0 0 0 0 0 0 0 0 0 0 0 0 0 0 0 0 0 0 0 0 0 0 0 0 0 0 0 0 0 0 0 0 0 0 0 0 0
0 0 0 0 0 0 0 0 0 0 0 0 0 0 0 0 0 0 0 0 0 0 0 0 0 0 0 0 0 0 0 0 0 0 0 0 0 0 0 0 0 0 0 0 0 0 0 0 0 0 0 0 0 0
0 0 0 0 0 0 0 0 0 0 0 0 0 0 0 0 0 0 0 0 0 0 0 0 0 0 0 0 0 0 0 0 0 0 0 0 0 0 0 0 0 0 0 0 0 0 0 0 0 0 0 0 0 0
0 0 0 0 0 0 0 0 0 0 0 0 0 0 0 0 0 0 0 0 0 0 0 0 0 0 0 0 0 0 0 0 0 0 0 0 0 0 0 0 0 0 0 0 0 0 0 0 0 0 0 0 0 0
0 0 0 0 0 0 0 0 0 0 0 0 0 0 0 0 0 0 0 0 0 0 0 0 0 0 0 0 0 0 0 0 0 0 0 0 0 0 0 0 0 0 0 0 0 0 0 0 0 0 0 0 0 0
0 0 0 0 0 0 0 0 0 0 0 0 0 0 0 0 0 0 0 0 0 0 0 0 0 0 0 0 0 0 0 0 0 0 0 0 0 0 0 0 0 0 0 0 0 0 0 0 0 0 0 0 0 0
0 -0 0 0 0 0 0 0 0 0 0 0 0 0 0 0 0 0 0 0 0 0 0 0 0 0 0 0 0 0 0 0 0 0 0 0 0 0 0 0 0 0 0 0 0 0 0 0 0 0 0 0 0 0
0 0 -0 0 0 0 0 0 0 0 0 0 0 0 0 0 0 0 0 0 -0 -0 -0 0 0 0 0 0 0 0 0 0 0 0 0 0 0 0 0 0 0 0 0 0 0 0 0 0 0 0 0 0 0 0
-0 0 -0 -0 0 0 0 0 0 0 0 0 0 0 0 0 0 0 0 0 0 0 -0 -0 -0 -0 0 0 0 0 0 0 0 0 0 0 0 0 0 0 0 0 0 0 0 0 0 0 0 0 0 0 0 0
-0 -0 -0 0 0 0 0 0 0 0 0 0 0 0 0 0 0 0 0 0 0 0 0 -0 -0 -0 -0 -0 -0 -0 0 0 0 0 0 0 0 0 0 0 0 0 0 0 0 0 0 0 0 0 0 0 0 0
0 0 0 0 0 0 0 0 0 0 0 0 0 0 0 0 0 0 0 0 0 0 0 0 0 -0 -0 -0 -0 -0 -0 -0 0 0 0 0 0 0 0 0 0 0 0 0 0 0 0 0 0 0 0 0 0 0
0 0 0 0 0 0 0 0 0 0 0 0 0 0 0 0 0 0 0 0 0 0 0 0 0 0 -0 -0 -0 -0 -0 -0 -0 -0 -0 0 0 0 0 0 0 0 0 0 0 0 0 0 0 0 0 0 0 0
0 0 0 0 0 0 0 0 0 0 0 0 0 0 0 0 0 0 0 0 0 0 0 0 0 0 0 -0 -0 -0 -0 -0 -0 0 0 0 0 0 0 0 0 0 0 0 0 0 0 0 0 0 0 0 0 0
0 0 -0 -0 0 -0 0 0 0 0 0 0 0 0 0 0 0 0 0 0 0 0 0 0 0 0 0 0 0 -0 -0 0 0 0 0 0 0 0 0 0 0 0 0 0 0 0 0 0 0 0 0 0 0 0
0 0 0 -0 -0 -0 -0 -0 0 -0 -0 0 0 0 0 0 0 0 0 0 0 0 0 0 0 0 0 0 0 0 0 0 0 0 0 0 0 0 0 0 0 0 0 0 0 0 0 0 0 0 0 0 0 0
-0 -0 -0 0 0 -0 0 -0 -0 0 0 0 0 0 0 0 0 0 0 0 0 0 0 0 0 0 0 0 0 0 0 0 0 0 0 0 0 0 0 0 0 0 0 0 0 0 0 0 0 0 0 0 0 0
-0 -0 0 0 0 0 0 -0 -0 -0 -0 0 0 0 0 -0 -0 -0 -0 0 0 0 0 0 0 0 0 0 0 0 0 0 0 0 0 0 0 0 0 0 0 0 0 0 0 0 0 0 0 0 0 0 0 0
0 0 0 0 0 0 0 0 0 -0 0 0 0 0 -0 -0 -0 -0 -0 -0 0 0 0 0 0 0 0 0 0 0 0 0 0 0 0 0 0 0 0 0 0 0 0 0 0 0 0 0 0 0 0 0 0 0
0 0 0 0 0 0 -0 -0 -0 -0 -0 -0 -0 -0 -0 -0 -0 -0 0 0 0 0 0 0 0 0 0 0 0 0 0 0 0 0 0 0 0 0 0 0 0 0 0 0 0 0 0 0 0 0 0 0 0 0
0 0 0 0 0 0 0 0 0 0 0 0 0 0 0 0 0 0 0 0 0 0 0 0 0 0 0 0 0 0 0 0 0 0 0 0 0 0 0 0 0 0 0 0 0 0 0 0 0 0 0 0 0 0
0 0 0 0 -0 0 0 0 0 0 0 0 0 0 0 0 0 0 0 0 0 0 0 0 0 0 0 0 0 0 0 0 0 0 0 0 0 0 0 0 0 0 0 0 0 0 0 0 0 0 0 0 0 0
0 0 0 0 0 0 0 0 0 0 0 0 0 0 0 0 0 0 0 0 0 0 0 0 -0 0 0 0 0 0 0 0 0 0 -0 0 0 0 0 0 0 0 0 0 0 0 0 0 0 0 0 0 0 0
0 0 0 0 0 0 0 0 0 0 0 0 0 0 0 0 0 0 0 0 0 0 0 -0 -0 -0 -0 -0 -0 -0 -0 -0 -0 -0 -0 0 0 0 0 0 0 0 0 0 0 0 0 0 0 0 0 0 0 0
Wind_Speed_500mb
36 37 33 41 46 46 28 31 47 48 51 53 51 59 73 69 48 128 80 88 72 38 35 72 64 45 39 37 14 34 17 7 3 6 7 8 6 14 6 10 14 16 16 8 6 2 16 27 17 15 5 6 9 12
33 33 36 36 46 53 23 22 42 48 50 58 61 47 66 68 51 74 70 81 91 36 20 72 66 69 78 85 66 66 17 30 33 7 6 6 4 3 8 7 7 8 13 12 19 14 5 60 17 33 9 6 8 14
31 35 36 34 39 50 36 17 39 38 42 48 59 55 48 57 63 46 90 55 69 45 21 47 60 67 66 59 61 35 20 31 31 18 20 7 8 9 10 11 4 8 14 3 5 7 42 46 53 50 39 41 36 32
35 35 37 35 35 43 41 20 27 29 37 43 57 59 53 54 58 67 66 77 55 17 7 14 53 62 68 61 64 61 39 55 37 31 11 6 7 23 7 7 8 10 28 12 12 28 39 56 51 44 35 40 43 41
38 35 38 38 38 38 41 19 26 24 34 9 39 50 50 49 52 55 63 62 72 47 13 11 42 54 65 68 64 62 45 66 48 22 6 7 12 10 5 4 6 25 16 11 16 35 20 17 13 12 21 34 38 40
43 39 40 39 38 43 44 21 23 26 32 14 12 37 29 65 38 65 38 59 54 66 13 6 14 35 53 62 62 63 53 59 34 19 12 12 15 20 9 8 20 62 65 67 46 44 40 44 45 56 58 56 49 48
42 41 39 39 40 43 39 29 25 18 25 16 13 24 47 36 57 59 24 27 69 46 22 6 6 18 39 52 47 45 53 29 20 18 16 16 17 23 5 13 12 41 55 72 75 70 57 66 60 50 49 45 38 42
39 40 36 36 36 38 36 35 27 20 25 17 12 18 13 25 39 46 25 36 78 36 17 7 4 13 45 17 15 30 24 23 22 16 13 13 16 9 10 15 57 52 43 45 68 78 76 65 69 73 70 67 69 70
38 35 32 33 34 38 38 32 30 27 26 17 10 7 16 12 9 19 31 27 47 27 20 10 14 9 34 12 18 17 18 6 17 8 12 22 8 15 16 41 46 43 57 66 72 77 77 74 78 74 77 69 69 70
34 32 33 34 34 30 32 32 31 31 28 27 18 6 7 15 29 13 4 5 5 6 8 4 18 8 32 12 8 15 12 7 8 10 25 8 11 59 56 56 39 51 56 61 67 72 76 71 82 85 84 80 75 73
34 32 34 35 39 34 34 34 32 33 32 26 11 7 18 37 14 8 5 2 3 3 13 10 12 11 25 8 6 13 8 7 8 9 14 7 10 35 64 84 75 69 91 96 96 95 91 98 93 90 89 84 77 78
30 29 34 37 38 35 32 31 34 35 12 24 17 26 22 7 6 6 6 4 6 9 14 9 15 11 19 17 8 13 9 7 11 21 9 7 15 43 43 43 56 59 80 91 90 94 90 95 87 84 78 68 62 57
25 25 31 35 37 34 32 31 30 32 27 30 12 10 8 7 4 10 10 5 4 11 22 18 5 19 13 15 9 7 12 10 28 7 8 11 28 37 37 39 46 64 58 60 63 69 65 64 61 54 55 55 48 47
24 29 29 31 35 36 37 35 34 29 20 5 6 9 7 6 4 6 8 7 6 3 35 37 16 8 11 7 6 11 7 10 11 9 12 9 60 47 39 44 50 50 40 42 51 59 59 49 39 43 44 45 41 35
24 26 27 36 36 37 39 39 38 39 13 7 9 6 6 7 6 12 10 9 14 5 16 11 6 14 6 7 7 7 5 11 13 12 8 46 33 32 40 52 46 38 41 48 51 47 39 35 32 33 41 44 38 35
38 36 43 42 46 43 41 38 41 42 20 15 7 1 12 10 6 8 4 4 9 16 13 8 5 6 11 6 5 12 9 11 11 9 20 17 29 38 34 32 38 42 44 39 36 33 32 32 35 40 40 35 32 31
43 60 54 50 50 48 45 43 34 18 8 17 7 23 15 16 26 28 29 15 16 11 3 5 7 9 6 6 10 9 3 11 36 42 21 3 9 15 18 21 23 24 23 24 26 28 32 37 35 32 31 30 27 24
58 59 66 63 53 55 29 32 16 14 8 4 7 20 27 14 18 17 23 18 12 11 16 9 4 6 10 7 7 5 11 56 40 34 40 25 13 11 13 16 17 15 14 18 21 25 29 28 27 26 24 24 21 19
39 74 73 61 61 33 7 12 8 4 2 3 16 10 22 13 14 6 25 20 16 8 8 14 5 3 5 10 11 19 30 32 45 59 53 31 23 16 11 8 11 10 14 16 15 14 18 21 23 21 21 20 18 16
77 66 60 61 46 8 8 8 14 10 8 5 8 17 12 7 14 19 21 23 17 9 3 3 3 4 9 12 10 18 26 30 35 42 29 24 23 18 16 11 8 9 12 13 12 14 16 17 16 16 18 17 13 13
51 54 44 39 25 12 11 7 7 5 8 11 13 9 9 15 9 10 9 9 9 7 1 2 1 3 4 7 7 11 14 15 18 23 30 38 25 21 13 9 4 7 10 12 12 10 11 12 13 15 16 13 14 14
44 40 34 19 8 6 8 6 7 7 3 6 6 5 6 4 6 5 2 6 10 6 2 3 6 9 6 4 9 13 15 12 13 12 14 18 19 14 8 2 2 5 8 8 9 9 7 8 11 12 12 13 14 13
30 19 11 6 5 7 4 4 5 7 5 4 4 7 7 7 5 6 12 8 5 9 10 8 5 6 6 7 10 15 14 8 8 8 6 5 6 5 4 2 3 5 7 7 9 8 7 6 8 8 9 11 13 13
17 7 10 11 16 3 3 9 5 7 1 7 6 4 3 5 3 9 3 4 9 11 10 9 6 1 3 6 9 10 10 8 7 7 3 7 3 6 10 11 10 9 7 8 8 7 6 5 5 4 4 7 7 7
7 18 12 12 17 12 13 11 11 10 7 7 7 4 5 8 3 4 1 5 6 8 7 6 5 7 4 4 7 6 6 3 4 11 8 4 2 3 1 2 7 14 10 7 5 6 6 5 3 2 2 5 5 5
15 20 11 8 9 8 5 6 9 7 5 7 6 13 9 3 2 2 2 13 11 10 12 10 9 7 10 10 9 5 2 5 8 8 17 17 13 10 10 7 6 10 12 11 9 8 8 8 8 7 7 9 10 11
9 8 10 13 5 5 7 8 8 5 6 6 6 9 6 4 2 3 7 10 12 12 8 3 3 6 6 9 9 5 4 4 10 7 6 8 16 19 16 17 15 14 13 13 12 11 11 12 12 13 12 12 12 12
9 9 5 10 11 12 4 5 5 3 2 6 5 3 2 1 2 7 6 14 12 6 2 2 0 2 2 11 17 13 3 4 10 5 5 8 10 21 19 17 17 17 18 17 15 12 11 13 13 14 15 14 13 12
10 7 7 7 8 11 9 5 5 4 6 2 2 1 3 4 9 9 8 6 5 5 6 5 4 4 5 7 14 16 13 9 9 9 9 13 13 18 20 20 19 18 16 15 14 11 11 13 15 15 14 13 12 11
5 6 5 7 6 5 4 5 4 4 5 4 4 3 5 8 11 11 9 7 7 9 10 11 12 10 9 9 12 18 20 20 17 16 16 19 22 23 23 24 23 21 19 17 15 13 11 10 10 10 9 9 8 8
6 5 7 7 5 4 4 4 6 7 6 6 6 2 3 2 6 16 15 12 10 9 9 11 13 15 17 15 14 16 18 18 18 18 17 16 17 20 22 23 23 23 22 21 20 18 18 15 14 14 13 12 13 13
5 5 8 5 4 6 5 4 3 6 6 9 8 6 5 3 3 5 10 9 8 8 8 10 11 14 16 17 19 19 18 18 18 16 15 17 22 25 27 27 27 26 25 25 24 23 22 21 20 20 20 20 20 19
6 7 8 7 4 4 3 3 2 3 1 2 3 4 3 6 6 4 8 10 10 10 11 12 14 14 14 14 14 14 16 18 20 21 22 23 25 25 25 26 26 26 27 27 26 26 26 24 24 24 25 25 24 24
Wind_Direction_500mb
254 256 263 278 288 253 211 231 228 238 243 241 233 233 240 248 225 207 212 208 202 201 190 193 192 169 158 160 146 152 110 195 154 150 154 191 174 211 136 164 174 178 153 181 102 123 277 160 126 175 212 179 196 219
257 256 260 266 278 254 264 238 243 242 245 236 225 232 230 240 237 221 215 219 212 208 201 202 202 206 204 196 176 166 175 155 170 143 194 110 161 120 162 219 151 226 187 179 189 211 244 185 206 217 210 232 242 253
256 257 258 261 274 282 260 240 235 240 246 244 229 228 226 232 229 226 211 213 207 220 209 199 209 207 207 210 205 163 190 175 185 161 150 172 187 138 166 232 138 239 186 184 62 249 233 235 232 245 248 259 270 267
252 257 257 259 262 277 255 245 238 241 253 255 224 229 227 218 222 223 222 216 211 193 193 212 205 209 213 210 207 203 197 185 186 171 152 155 173 193 192 169 171 185 147 175 266 276 268 269 250 246 253 266 271 278
247 253 256 252 251 263 254 231 241 260 217 211 217 222 221 214 217 214 217 228 218 195 169 180 201 207 206 212 209 208 201 182 168 161 158 205 160 135 108 106 228 190 173 172 222 216 207 240 216 247 270 276 280 281
245 248 253 251 243 251 244 222 229 260 245 248 190 194 191 200 202 194 203 201 202 204 161 171 192 195 196 198 204 204 197 188 184 164 186 196 183 178 174 200 234 212 216 232 234 246 252 268 271 276 280 286 291 285
243 246 250 245 242 238 225 215 222 243 226 258 145 191 203 181 185 190 179 180 192 181 164 132 189 166 182 181 179 180 187 183 181 171 193 164 186 188 211 212 204 207 218 232 242 251 255 259 268 282 281 283 278 278
238 242 243 235 231 233 211 209 205 199 170 170 199 165 162 203 184 185 163 169 181 183 173 151 119 151 169 154 140 173 171 167 184 180 162 161 152 196 245 197 231 231 229 238 246 250 251 265 275 273 274 276 280 283
235 236 231 227 223 221 207 192 187 187 210 229 144 165 201 219 135 171 194 157 167 180 169 159 155 184 168 145 139 152 160 151 181 190 185 161 170 220 203 205 214 209 214 237 246 251 260 258 265 269 270 274 277 281
227 227 221 213 205 196 196 197 184 175 173 179 168 133 120 116 128 128 123 218 246 193 164 152 152 156 169 152 130 126 167 171 173 206 153 217 249 240 237 244 242 218 227 242 243 248 250 253 260 271 271 277 281 283
215 217 210 198 195 189 189 186 181 169 178 157 135 102 131 144 132 125 113 143 217 193 189 177 164 134 181 143 133 193 168 159 183 201 181 220 263 238 235 239 237 237 253 252 255 260 262 264 270 274 279 282 283 285
205 205 202 193 189 188 189 184 183 187 142 161 145 124 141 161 97 115 176 203 197 195 177 161 160 144 159 154 128 173 176 168 209 142 174 236 253 256 247 239 242 246 253 253 259 259 262 265 270 275 278 282 279 278
191 190 189 185 186 189 187 187 186 188 174 143 136 120 138 173 149 183 191 233 160 163 163 156 144 151 164 182 123 173 171 185 128 173 212 228 258 243 231 221 233 241 248 252 258 262 265 268 272 277 276 273 274 268
196 193 191 190 189 188 189 185 181 180 170 124 142 148 169 186 202 193 200 197 131 270 179 167 134 166 172 182 166 173 157 134 180 180 225 243 240 220 213 215 227 233 233 239 248 254 259 266 271 268 264 269 268 271
220 208 208 203 196 192 189 188 184 181 165 169 152 197 193 213 169 160 113 107 81 95 154 152 183 177 192 207 180 103 147 188 192 202 222 234 226 212 221 230 234 229 230 238 249 256 262 267 266 258 267 273 276 277
236 227 217 206 196 193 190 183 189 195 180 169 195 139 149 79 12 356 186 146 105 51 172 225 178 227 221 183 140 188 192 214 202 209 206 218 201 213 223 220 225 232 237 241 248 258 265 258 252 256 256 256 257 258
227 220 209 198 190 185 186 186 185 192 266 162 198 205 201 187 203 242 220 219 196 188 112 338 238 223 308 203 187 172 295 345 336 356 12 339 226 220 224 225 232 237 239 251 257 260 253 254 254 255 258 259 255 250
225 215 190 181 176 174 170 180 189 181 179 142 146 192 206 226 178 180 210 211 194 188 155 157 78 0 312 325 350 273 301 320 327 345 348 349 337 297 263 255 255 261 262 263 256 250 247 248 254 251 244 241 238 246
122 161 170 165 168 153 120 124 148 144 180 195 196 196 205 222 223 167 186 197 207 208 148 137 167 208 194 202 207 308 324 325 316 309 318 332 333 323 306 283 268 275 267 257 248 243 246 240 238 236 237 237 237 240
111 128 149 159 162 100 81 96 153 149 193 157 164 173 180 202 202 196 173 168 174 177 143 163 187 352 152 187 280 310 318 310 310 314 307 305 329 327 311 300 291 265 252 245 232 229 231 230 237 237 237 234 227 223
128 115 122 133 114 79 103 141 130 137 135 196 148 161 141 169 171 180 167 151 159 60 31 26 24 289 341 352 331 310 297 298 306 310 303 302 318 327 323 308 283 235 222 216 204 202 212 215 222 224 224 219 218 214
111 116 110 101 93 99 88 69 116 136 182 115 162 191 111 121 57 66 118 62 73 60 335 325 287 320 325 344 346 336 337 337 313 313 304 311 318 293 289 275 186 173 172 170 172 177 190 195 198 201 207 217 219 218
130 113 76 71 98 59 75 53 74 31 91 302 124 73 28 40 46 132 73 48 27 359 343 336 309 296 322 343 349 337 335 340 3 325 305 336 337 345 22 70 123 128 118 120 126 135 159 170 175 184 196 212 220 220
122 73 35 42 27 60 35 31 38 1 130 42 57 78 15 30 27 59 80 33 10 359 348 345 337 282 255 323 355 335 346 357 4 324 226 201 204 88 76 68 70 84 99 87 88 98 109 123 149 157 201 228 237 242
99 15 18 10 21 29 31 9 353 31 38 341 32 67 355 335 63 57 172 340 355 7 12 28 46 55 10 345 309 340 9 15 14 22 47 57 62 47 74 95 61 55 69 77 89 77 67 60 60 55 307 291 281 271
66 17 38 10 7 49 359 33 23 9 342 360 32 335 336 319 254 289 317 340 344 346 357 12 24 39 32 352 339 314 299 182 155 120 81 76 77 66 51 41 60 41 23 27 32 37 27 18 18 8 348 334 327 321
80 20 38 37 60 84 83 65 42 40 42 10 356 342 331 257 333 46 332 334 345 330 332 347 5 34 354 4 355 319 232 225 183 155 80 68 45 39 28 21 22 18 20 13 9 4 3 6 8 4 353 340 333 331
76 34 51 17 60 45 68 59 38 45 356 343 269 12 330 240 321 338 324 325 332 346 4 33 308 239 68 35 30 34 61 170 187 174 117 53 39 25 20 11 5 4 358 354 355 353 348 346 351 354 349 342 338 335
48 27 35 60 67 59 45 36 11 324 312 295 324 356 293 290 331 336 344 346 27 65 71 60 55 128 130 77 48 53 71 107 105 105 71 51 46 27 23 18 16 13 9 3 354 346 332 325 328 341 341 343 349 349
51 52 91 58 54 51 35 38 50 48 87 121 121 76 28 30 36 37 41 51 74 87 91 88 76 91 118 107 82 64 67 69 77 77 63 43 29 23 23 26 25 22 20 19 20 16 5 351 343 345 348 355 5 14
107 109 92 70 101 100 106 94 90 86 85 81 100 159 202 258 38 46 58 76 93 101 100 93 94 90 84 89 89 78 68 66 65 64 57 45 35 35 34 29 26 25 25 27 31 34 37 36 37 37 37 39 45 47
46 79 121 105 188 205 292 289 252 189 177 186 196 198 211 228 286 41 30 65 88 109 117 107 91 85 86 88 84 80 73 66 63 63 60 51 46 42 38 35 34 36 36 37 39 43 47 51 57 60 61 63 65 68
103 82 87 110 128 193 227 337 55 217 152 131 83 72 134 165 157 44 40 47 65 76 95 104 103 103 94 84 75 70 68 65 59 54 52 49 48 47 46 45 46 48 48 49 52 54 57 60 66 70 72 74 77 78
Wind_Speed_850mb
36 37 33 41 46 46 28 31 47 48 51 53 51 59 73 69 48 128 80 88 72 38 35 72 64 45 39 37 14 34 17 7 3 6 7 8 6 14 6 10 14 16 16 8 6 2 16 27 17 15 5 6 9 12
33 33 36 36 46 53 23 22 42 48 50 58 61 47 66 68 51 74 70 81 91 36 20 72 66 69 78 85 66 66 17 30 33 7 6 6 4 3 8 7 7 8 13 12 19 14 5 60 17 33 9 6 8 14
31 35 36 34 39 50 36 17 39 38 42 48 59 55 48 57 63 46 90 55 69 45 21 47 60 67 66 59 61 35 20 31 31 18 20 7 8 9 10 11 4 8 14 3 5 7 42 46 53 50 39 41 36 32
35 35 37 35 35 43 41 20 27 29 37 43 57 59 53 54 58 67 66 77 55 17 7 14 53 62 68 61 64 61 39 55 37 31 11 6 7 23 7 7 8 10 28 12 12 28 39 56 51 44 35 40 43 41
38 35 38 38 38 38 41 19 26 24 34 9 39 50 50 49 52 55 63 62 72 47 13 11 42 54 65 68 64 62 45 66 48 22 6 7 12 10 5 4 6 25 16 11 16 35 20 17 13 12 21 34 38 40
43 39 40 39 38 43 44 21 23 26 32 14 12 37 29 65 38 65 38 59 54 66 13 6 14 35 53 62 62 63 53 59 34 19 12 12 15 20 9 8 20 62 65 67 46 44 40 44 45 56 58 56 49 48
42 41 39 39 40 43 39 29 25 18 25 16 13 24 47 36 57 59 24 27 69 46 22 6 6 18 39 52 47 45 53 29 20 18 16 16 17 23 5 13 12 41 55 72 75 70 57 66 60 50 49 45 38 42
39 40 36 36 36 38 36 35 27 20 25 17 12 18 13 25 39 46 25 36 78 36 17 7 4 13 45 17 15 30 24 23 22 16 13 13 16 9 10 15 57 52 43 45 68 78 76 65 69 73 70 67 69 70
38 35 32 33 34 38 38 32 30 27 26 17 10 7 16 12 9 19 31 27 47 27 20 10 14 9 34 12 18 17 18 6 17 8 12 22 8 15 16 41 46 43 57 66 72 77 77 74 78 74 77 69 69 70
34 32 33 34 34 30 32 32 31 31 28 27 18 6 7 15 29 13 4 5 5 6 8 4 18 8 32 12 8 15 12 7 8 10 25 8 11 59 56 56 39 51 56 61 67 72 76 71 82 85 84 80 75 73
34 32 34 35 39 34 34 34 32 33 32 26 11 7 18 37 14 8 5 2 3 3 13 10 12 11 25 8 6 13 8 7 8 9 14 7 10 35 64 84 75 69 91 96 96 95 91 98 93 90 89 84 77 78
30 29 34 37 38 35 32 31 34 35 12 24 17 26 22 7 6 6 6 4 6 9 14 9 15 11 19 17 8 13 9 7 11 21 9 7 15 43 43 43 56 59 80 91 90 94 90 95 87 84 78 68 62 57
25 25 31 35 37 34 32 31 30 32 27 30 12 10 8 7 4 10 10 5 4 11 22 18 5 19 13 15 9 7 12 10 28 7 8 11 28 37 37 39 46 64 58 60 63 69 65 64 61 54 55 55 48 47
24 29 29 31 35 36 37 35 34 29 20 5 6 9 7 6 4 6 8 7 6 3 35 37 16 8 11 7 6 11 7 10 11 9 12 9 60 47 39 44 50 50 40 42 51 59 59 49 39 43 44 45 41 35
24 26 27 36 36 37 39 39 38 39 13 7 9 6 6 7 6 12 10 9 14 5 16 11 6 14 6 7 7 7 5 11 13 12 8 46 33 32 40 52 46 38 41 48 51 47 39 35 32 33 41 44 38 35
38 36 43 42 46 43 41 38 41 42 20 15 7 1 12 10 6 8 4 4 9 16 13 8 5 6 11 6 5 12 9 11 11 9 20 17 29 38 34 32 38 42 44 39 36 33 32 32 35 40 40 35 32 31
43 60 54 50 50 48 45 43 34 18 8 17 7 23 15 16 26 28 29 15 16 11 3 5 7 9 6 6 10 9 3 11 36 42 21 3 9 15 18 21 23 24 23 24 26 28 32 37 35 32 31 30 27 24
58 59 66 63 53 55 29 32 16 14 8 4 7 20 27 14 18 17 23 18 12 11 16 9 4 6 10 7 7 5 11 56 40 34 40 25 13 11 13 16 17 15 14 18 21 25 29 28 27 26 24 24 21 19
39 74 73 61 61 33 7 12 8 4 2 3 16 10 22 13 14 6 25 20 16 8 8 14 5 3 5 10 11 19 30 32 45 59 53 31 23 16 11 8 11 10 14 16 15 14 18 21 23 21 21 20 18 16
77 66 60 61 46 8 8 8 14 10 8 5 8 17 12 7 14 19 21 23 17 9 3 3 3 4 9 12 10 18 26 30 35 42 29 24 23 18 16 11 8 9 12 13 12 14 16 17 16 16 18 17 13 13
51 54 44 39 25 12 11 7 7 5 8 11 13 9 9 15 9 10 9 9 9 7 1 2 1 3 4 7 7 11 14 15 18 23 30 38 25 21 13 9 4 7 10 12 12 10 11 12 13 15 16 13 14 14
44 40 34 19 8 6 8 6 7 7 3 6 6 5 6 4 6 5 2 6 10 6 2 3 6 9 6 4 9 13 15 12 13 12 14 18 19 14 8 2 2 5 8 8 9 9 7 8 11 12 12 13 14 13
30 19 11 6 5 7 4 4 5 7 5 4 4 7 7 7 5 6 12 8 5 9 10 8 5 6 6 7 10 15 14 8 8 8 6 5 6 5 4 2 3 5 7 7 9 8 7 6 8 8 9 11 13 13
17 7 10 11 16 3 3 9 5 7 1 7 6 4 3 5 3 9 3 4 9 11 10 9 6 1 3 6 9 10 10 8 7 7 3 7 3 6 10 11 10 9 7 8 8 7 6 5 5 4 4 7 7 7
7 18 12 12 17 12 13 11 11 10 7 7 7 4 5 8 3 4 1 5 6 8 7 6 5 7 4 4 7 6 6 3 4 11 8 4 2 3 1 2 7 14 10 7 5 6 6 5 3 2 2 5 5 5
15 20 11 8 9 8 5 6 9 7 5 7 6 13 9 3 2 2 2 13 11 10 12 10 9 7 10 10 9 5 2 5 8 8 17 17 13 10 10 7 6 10 12 11 9 8 8 8 8 7 7 9 10 11
9 8 10 13 5 5 7 8 8 5 6 6 6 9 6 4 2 3 7 10 12 12 8 3 3 6 6 9 9 5 4 4 10 7 6 8 16 19 16 17 15 14 13 13 12 11 11 12 12 13 12 12 12 12
9 9 5 10 11 12 4 5 5 3 2 6 5 3 2 1 2 7 6 14 12 6 2 2 0 2 2 11 17 13 3 4 10 5 5 8 10 21 19 17 17 17 18 17 15 12 11 13 13 14 15 14 13 12
10 7 7 7 8 11 9 5 5 4 6 2 2 1 3 4 9 9 8 6 5 5 6 5 4 4 5 7 14 16 13 9 9 9 9 13 13 18 20 20 19 18 16 15 14 11 11 13 15 15 14 13 12 11
5 6 5 7 6 5 4 5 4 4 5 4 4 3 5 8 11 11 9 7 7 9 10 11 12 10 9 9 12 18 20 20 17 16 16 19 22 23 23 24 23 21 19 17 15 13 11 10 10 10 9 9 8 8
6 5 7 7 5 4 4 4 6 7 6 6 6 2 3 2 6 16 15 12 10 9 9 11 13 15 17 15 14 16 18 18 18 18 17 16 17 20 22 23 23 23 22 21 20 18 18 15 14 14 13 12 13 13
5 5 8 5 4 6 5 4 3 6 6 9 8 6 5 3 3 5 10 9 8 8 8 10 11 14 16 17 19 19 18 18 18 16 15 17 22 25 27 27 27 26 25 25 24 23 22 21 20 20 20 20 20 19
6 7 8 7 4 4 3 3 2 3 1 2 3 4 3 6 6 4 8 10 10 10 11 12 14 14 14 14 14 14 16 18 20 21 22 23 25 25 25 26 26 26 27 27 26 26 26 24 24 24 25 25 24 24
Wind_Direction_850mb
254 256 263 278 288 253 211 231 228 238 243 241 233 233 240 248 225 207 212 208 202 201 190 193 192 169 158 160 146 152 110 195 154 150 154 191 174 211 136 164 174 178 153 181 102 123 277 160 126 175 212 179 196 219
257 256 260 266 278 254 264 238 243 242 245 236 225 232 230 240 237 221 215 219 212 208 201 202 202 206 204 196 176 166 175 155 170 143 194 110 161 120 162 219 151 226 187 179 189 211 244 185 206 217 210 232 242 253
256 257 258 261 274 282 260 240 235 240 246 244 229 228 226 232 229 226 211 213 207 220 209 199 209 207 207 210 205 163 190 175 185 161 150 172 187 138 166 232 138 239 186 184 62 249 233 235 232 245 248 259 270 267
252 257 257 259 262 277 255 245 238 241 253 255 224 229 227 218 222 223 222 216 211 193 193 212 205 209 213 210 207 203 197 185 186 171 152 155 173 193 192 169 171 185 147 175 266 276 268 269 250 246 253 266 271 278
247 253 256 252 251 263 254 231 241 260 217 211 217 222 221 214 217 214 217 228 218 195 169 180 201 207 206 212 209 208 201 182 168 161 158 205 160 135 108 106 228 190 173 172 222 216 207 240 216 247 270 276 280 281
245 248 253 251 243 251 244 222 229 260 245 248 190 194 191 200 202 194 203 201 202 204 161 171 192 195 196 198 204 204 197 188 184 164 186 196 183 178 174 200 234 212 216 232 234 246 252 268 271 276 280 286 291 285
243 246 250 245 242 238 225 215 222 243 226 258 145 191 203 181 185 190 179 180 192 181 164 132 189 166 182 181 179 180 187 183 181 171 193 164 186 188 211 212 204 207 218 232 242 251 255 259 268 282 281 283 278 278
238 242 243 235 231 233 211 209 205 199 170 170 199 165 162 203 184 185 163 169 181 183 173 151 119 151 169 154 140 173 171 167 184 180 162 161 152 196 245 197 231 231 229 238 246 250 251 265 275 273 274 276 280 283
235 236 231 227 223 221 207 192 187 187 210 229 144 165 201 219 135 171 194 157 167 180 169 159 155 184 168 145 139 152 160 151 181 190 185 161 170 220 203 205 214 209 214 237 246 251 260 258 265 269 270 274 277 281
227 227 221 213 205 196 196 197 184 175 173 179 168 133 120 116 128 128 123 218 246 193 164 152 152 156 169 152 130 126 167 171 173 206 153 217 249 240 237 244 242 218 227 242 243 248 250 253 260 271 271 277 281 283
215 217 210 198 195 189 189 186 181 169 178 157 135 102 131 144 132 125 113 143 217 193 189 177 164 134 181 143 133 193 168 159 183 201 181 220 263 238 235 239 237 237 253 252 255 260 262 264 270 274 279 282 283 285
205 205 202 193 189 188 189 184 183 187 142 161 145 124 141 161 97 115 176 203 197 195 177 161 160 144 159 154 128 173 176 168 209 142 174 236 253 256 247 239 242 246 253 253 259 259 262 265 270 275 278 282 279 278
191 190 189 185 186 189 187 187 186 188 174 143 136 120 138 173 149 183 191 233 160 163 163 156 144 151 164 182 123 173 171 185 128 173 212 228 258 243 231 221 233 241 248 252 258 262 265 268 272 277 276 273 274 268
196 193 191 190 189 188 189 185 181 180 170 124 142 148 169 186 202 193 200 197 131 270 179 167 134 166 172 182 166 173 157 134 180 180 225 243 240 220 213 215 227 233 233 239 248 254 259 266 271 268 264 269 268 271
220 208 208 203 196 192 189 188 184 181 165 169 152 197 193 213 169 160 113 107 81 95 154 152 183 177 192 207 180 103 147 188 192 202 222 234 226 212 221 230 234 229 230 238 249 256 262 267 266 258 267 273 276 277
236 227 217 206 196 193 190 183 189 195 180 169 195 139 149 79 12 356 186 146 105 51 172 225 178 227 221 183 140 188 192 214 202 209 206 218 201 213 223 220 225 232 237 241 248 258 265 258 252 256 256 256 257 258
227 220 209 198 190 185 186 186 185 192 266 162 198 205 201 187 203 242 220 219 196 188 112 338 238 223 308 203 187 172 295 345 336 356 12 339 226 220 224 225 232 237 239 251 257 260 253 254 254 255 258 259 255 250
225 215 190 181 176 174 170 180 189 181 179 142 146 192 206 226 178 180 210 211 194 188 155 157 78 0 312 325 350 273 301 320 327 345 348 349 337 297 263 255 255 261 262 263 256 250 247 248 254 251 244 241 238 246
122 161 170 165 168 153 120 124 148 144 180 195 196 196 205 222 223 167 186 197 207 208 148 137 167 208 194 202 207 308 324 325 316 309 318 332 333 323 306 283 268 275 267 257 248 243 246 240 238 236 237 237 237 240
111 128 149 159 162 100 81 96 153 149 193 157 164 173 180 202 202 196 173 168 174 177 143 163 187 352 152 187 280 310 318 310 310 314 307 305 329 327 311 300 291 265 252 245 232 229 231 230 237 237 237 234 227 223
128 115 122 133 114 79 103 141 130 137 135 196 148 161 141 169 171 180 167 151 159 60 31 26 24 289 341 352 331 310 297 298 306 310 303 302 318 327 323 308 283 235 222 216 204 202 212 215 222 224 224 219 218 214
111 116 110 101 93 99 88 69 116 136 182 115 162 191 111 121 57 66 118 62 73 60 335 325 287 320 325 344 346 336 337 337 313 313 304 311 318 293 289 275 186 173 172 170 172 177 190 195 198 201 207 217 219 218
130 113 76 71 98 59 75 53 74 31 91 302 124 73 28 40 46 132 73 48 27 359 343 336 309 296 322 343 349 337 335 340 3 325 305 336 337 345 22 70 123 128 118 120 126 135 159 170 175 184 196 212 220 220
122 73 35 42 27 60 35 31 38 1 130 42 57 78 15 30 27 59 80 33 10 359 348 345 337 282 255 323 355 335 346 357 4 324 226 201 204 88 76 68 70 84 99 87 88 98 109 123 149 157 201 228 237 242
99 15 18 10 21 29 31 9 353 31 38 341 32 67 355 335 63 57 172 340 355 7 12 28 46 55 10 345 309 340 9 15 14 22 47 57 62 47 74 95 61 55 69 77 89 77 67 60 60 55 307 291 281 271
66 17 38 10 7 49 359 33 23 9 342 360 32 335 336 319 254 289 317 340 344 346 357 12 24 39 32 352 339 314 299 182 155 120 81 76 77 66 51 41 60 41 23 27 32 37 27 18 18 8 348 334 327 321
80 20 38 37 60 84 83 65 42 40 42 10 356 342 331 257 333 46 332 334 345 330 332 347 5 34 354 4 355 319 232 225 183 155 80 68 45 39 28 21 22 18 20 13 9 4 3 6 8 4 353 340 333 331
76 34 51 17 60 45 68 59 38 45 356 343 269 12 330 240 321 338 324 325 332 346 4 33 308 239 68 35 30 34 61 170 187 174 117 53 39 25 20 11 5 4 358 354 355 353 348 346 351 354 349 342 338 335
48 27 35 60 67 59 45 36 11 324 312 295 324 356 293 290 331 336 344 346 27 65 71 60 55 128 130 77 48 53 71 107 105 105 71 51 46 27 23 18 16 13 9 3 354 346 332 325 328 341 341 343 349 349
51 52 91 58 54 51 35 38 50 48 87 121 121 76 28 30 36 37 41 51 74 87 91 88 76 91 118 107 82 64 67 69 77 77 63 43 29 23 23 26 25 22 20 19 20 16 5 351 343 345 348 355 5 14
107 109 92 70 101 100 106 94 90 86 85 81 100 159 202 258 38 46 58 76 93 101 100 93 94 90 84 89 89 78 68 66 65 64 57 45 35 35 34 29 26 25 25 27 31 34 37 36 37 37 37 39 45 47
46 79 121 105 188 205 292 289 252 189 177 186 196 198 211 228 286 41 30 65 88 109 117 107 91 85 86 88 84 80 73 66 63 63 60 51 46 42 38 35 34 36 36 37 39 43 47 51 57 60 61 63 65 68
103 82 87 110 128 193 227 337 55 217 152 131 83 72 134 165 157 44 40 47 65 76 95 104 103 103 94 84 75 70 68 65 59 54 52 49 48 47 46 45 46 48 48 49 52 54 57 60 66 70 72 74 77 78